Torna al catalogo

NOAA 17 DEB

AttivoPO
NORAD 48723·DEBRIS·🇺🇸 United States

Lanciato Jun 24, 2002 da Vandenberg Space Force Base

Loading…

Prossimi Passaggi (prossime 24 ore)

TLE

AggiornatoSource: Space-Track

Epoca: Sep 13, 2026, 10:48 UTC

1 48723U 02032BG  26256.45058154  .00004298  00000-0  10853-2 0  9996
2 48723  98.8199 253.4429 0020033 341.5447  18.5017 14.51465057287260

Traccia NOAA 17 DEB in tempo reale con AllMySat

Download on the App Store